Regional Weather Roundup
Issued by NWS Grand Forks, ND

Home | Current Version | Previous Version | Text Only | Print | Product List | Glossary Off
Versions: 1 2 3 4 5 6 7 8 9 10 11 12 13 14 15 16 17 18 19 20 21 22 23 24 25 26 27 28 29 30 31 32 33 34 35 36 37 38 39 40 41 42 43 44 45 46 47 48 49 50

063
ASUS43 KFGF 220410
RWRFGF
PRAIRIE TO PINES  WEATHER ROUNDUP
NATIONAL WEATHER SERVICE EASTERN NORTH DAKOTA/GRAND FORKS ND
1000 PM CST TUE NOV 21 2017

 **SATELLITE DATA USED TO AUGMENT SKY COVER AT AUTOMATED STATIONS**
 *****  WEATHER ACROSS EASTERN NORTH DAKOTA  *****

CITY           SKY/WX    TMP DP  RH WIND       PRES   REMARKS
GRAND FORKS    FAIR      14  10  84 W6        30.31R WCI   5
GRAND FRKS AFB CLEAR     13   7  79 W3        30.31R
GRAND FRKS NWS   N/A     14 N/A N/A NW3         N/A
DEVILS LAKE    FAIR      10   5  80 W8        30.29R WCI  -2
FARGO          FAIR      14   8  77 W9        30.34F WCI   2
WAHPETON ARPT  NOT AVBL
$$

 ***** WEATHER ACROSS CENTRAL AND WESTERN NORTH DAKOTA  *****

CITY           SKY/WX    TMP DP  RH WIND       PRES   REMARKS
BISMARCK       FAIR       8   4  83 E5        30.31F WCI   0
MINOT          FAIR       8   1  73 SW5       30.24F WCI   0
JAMESTOWN      FAIR      10   5  80 W6        30.30S WCI   0
MINOT AFB      FAIR       2  -2  81 S5        30.23F WCI  -7
GARRISON         N/A      7   2  80 CALM      30.24F
WILLISTON      FAIR      15   3  59 SE3       30.18F
DICKINSON      FAIR      11   2  67 S6        30.16F WCI   1
HETTINGER      FAIR      14   4  64 CALM      30.21F
$$

 *****  OTHER AIRPORT OBSERVATIONS IN OUR AREA  *****

CITY           SKY/WX    TMP DP  RH WIND       PRES   REMARKS
WALHALLA       FAIR      14  10  85 NW5       30.27F WCI   6
GRAFTON AIRPOR FAIR      14  10  85 W6        30.33R WCI   5
VALLEY CITY AR FAIR       7   7 100 SW7       30.32R WCI  -5
CANDO          FAIR       7   5  92 W8        30.30R WCI  -6
CAVALIER APRT  FAIR      12   7  79 CALM      30.28F
GWINNER          N/A      7   3  85 W5        30.33F WCI  -2
ROLLA          FAIR       7   1  78 S5        30.22F WCI  -2
 ***** THE ABOVE OBSERVATIONS ARE NON NWS ARE NOT QUALITY
       CONTROLLED AND MAY MIS-REPORT RAIN FOR SNOW...
$$

  *****  WEATHER ACROSS NORTHERN MINNESOTA  *****

CITY           SKY/WX    TMP DP  RH WIND       PRES   REMARKS
FLAG ISLAND    FAIR      12   9  85 W10       30.22R WCI  -1
WARROAD        FAIR      12   9  85 W8        30.25R WCI   1
ROSEAU         FAIR      14   9  79 W8        30.26R WCI   3
HALLOCK        FAIR      10   7  85 W5        30.30R WCI   2
THF RVR FALLS  FAIR      11   8  88 W6        30.30R WCI   1
BAUDETTE         N/A     11   7  84 W3        30.22S
WASKISH        FAIR      14  10  85 W12       30.25S WCI   0
CROOKSTON      FAIR      12   9  85 W6        30.33R WCI   3
STEPHEN NDAWN    N/A     10   7  85 W3          N/A
GREENBUSH NDAW   N/A     10   7  85 W5          N/A  WCI   2
$$
  *****  WEATHER ACROSS CENTRAL AND WEST MINNESOTA  *****

CITY           SKY/WX    TMP DP  RH WIND       PRES   REMARKS
FOSSTON        FAIR       9   3  78 SW7       30.29R WCI  -3
BEMIDJI        FAIR      11   8  86 W7        30.26S WCI   0
PARK RAPIDS    FAIR      12   7  80 NW5       30.26S WCI   4
ELBOW LAKE     FAIR      15  10  81 NW7       30.33S WCI   5
WADENA         FAIR      12   9  85 CALM      30.29R
DETROIT LAKES  FAIR      14  12  92 W7        30.29F WCI   4
MOORHEAD       FAIR      12   7  79 CALM      30.34F
FERGUS FALLS   FAIR      14   9  79 NW6       30.36F WCI   5
MORRIS MN      FAIR      16  10  79 NW7       30.33R WCI   6
STAPLES        FAIR      10   7  85 W5        30.29S WCI   2
$$
  *****  WEATHER ELSEWHERE ACROSS MINNESOTA  *****

CITY           SKY/WX    TMP DP  RH WIND       PRES   REMARKS
DULUTH         FLURRIES  15   9  76 NW12      30.21R WCI   2
INTRNTL FALLS    N/A     11   6  81 W3        30.21S
ELY            FLURRIES  16  10  79 W7        30.18R WCI   6
CLOQUET        CLOUDY    16   9  73 NW9       30.23R WCI   4
WHEATON        FAIR      14   9  79 NW3       30.37F
BRAINERD       FAIR      16   8  71 NW6       30.29R WCI   7
HIBBING        CLOUDY    14   8  77 NW9       30.23R WCI   2
ALEXANDRIA     FAIR      16  10  77 NW14      30.30S WCI   2
SAINT CLOUD    FAIR      16   9  74 NW12      30.31S WCI   3
MINNEAPOLIS    FAIR      20  11  68 N13       30.30S WCI   7
$$

  *****  WEATHER ACROSS SOUTH DAKOTA  *****

CITY           SKY/WX    TMP DP  RH WIND       PRES   REMARKS
SIOUX FALLS    FAIR      13   6  74 CALM      30.35F
BROOKINGS      FAIR      15   7  70 W3        30.34R
WATERTOWN      FAIR      15   8  73 NW6       30.31R WCI   6
HURON          FAIR       9   5  84 NW5       30.38R WCI   1
SISSETON         N/A     12   6  77 W7        30.35R WCI   1
ABERDEEN       FAIR       6   3  87 CALM      30.36S
MITCHELL       FAIR      15   8  73 W6        30.38F WCI   6
PIERRE         FAIR      14   5  67 CALM      30.31F
MOBRIDGE       FAIR      10   2  69 CALM      30.28F
RAPID CITY     FAIR      21  15  78 SE5       30.21F WCI  15
$$

  *****  SOME WEATHER IN NEARBY STATES *****

CITY           SKY/WX    TMP DP  RH WIND       PRES   REMARKS
GLASGOW MT     FAIR      19   6  57 E13       30.07F WCI   6
GREAT FALLS MT FAIR      50  36  58 SW21G33   29.99F
CHEYENNE WY    FAIR      33  33 100 SW7       30.25F
SCOTTSBLUFF NE FAIR      30  22  72 E9        30.23F WCI  22
OMAHA NE       FAIR      22  11  62 CALM      30.41S
DES MOINES IA  FAIR      25  12  58 W8        30.36R WCI  16
DAVENPORT IA   FAIR      23  17  78 NW7       30.29R WCI  15
CHICAGO IL     FAIR      29  14  53 NW14      30.19R WCI  18
EAU CLAIRE WI  FAIR      21  10  62 N10       30.24R WCI  10
LA CROSSE WI   FAIR      26  12  55 NW10G20   30.26R WCI  16
$$

  *****  SOME NATIONAL WEATHER *****

CITY           SKY/WX    TMP DP  RH WIND       PRES   REMARKS
LA GUARDIA NY  MOCLDY    53  40  61 S9        30.04S
RALEIGH NC     MOCLDY    53  49  86 CALM      30.03F
ATLANTA GA     FAIR      56  54  93 E3        30.02F
NEW ORLEANS LA CLOUDY    64  62  93 N7        30.03S
OKLAHOMA CITY  FAIR      43  14  31 N20       30.34R
ALBUQUERQUE NM FAIR      53  25  33 E17       30.35R
SALT LAKE CITY FAIR      51  42  71 SE7       30.36R
LOS ANGELES CA FAIR      66  57  72 W6        30.04R
BOISE ID       CLOUDY    54  49  83 SE9       30.26R
SEATTLE WA     LGT RAIN  58  57  97 S10       29.89R
$$

*** WEATHER ACROSS MANITOBA...SASKATCHEWAN AND ONTARIO ***
                ***ONTARIO***

CITY           SKY/WX    TMP DP  RH WIND       PRES   REMARKS
GERALDTON      FLURRIES  14  10  85 W7        29.95R WCI   4
THUNDER BAY    FLURRIES  19  12  73 W15G23    30.13S WCI   5
SIOUX LOOKOUT  FLURRIES  16  10  79 W9        30.10S WCI   4
TORONTO        LGT RAIN  37  32  81 NW16G23   29.88R
BIG TROUT LK   FLURRIES  16  12  86 NW16G23   29.88R WCI   0
PICKLE LAKE    NOT AVBL
DRYDEN         CLOUDY    14  10  85 W12G20    30.13R WCI   0
KENORA         PTCLDY    10   5  79 W7        30.18R WCI   0
$$
                *** MANITOBA***

CITY           SKY/WX    TMP DP  RH WIND       PRES   REMARKS
BRANDON        PTCLDY     3  -2  78 W9        30.23S WCI -11
DAUPHIN        CLEAR      9   3  78 W13       30.22F WCI  -7
ISLAND LAKE    FLURRIES  10   5  79 W14       30.04F WCI  -5
PILOT MOUND      N/A      7   3  85 SW7         N/A  WCI  -5
THE PAS        PTCLDY     5  -2  72 W10       30.14F WCI -10
THOMPSON       MOCLDY     1  -2  85 SW3       30.01F
WINNIPEG       PTCLDY    10   5  79 W8        30.26S WCI  -1
LYNN LAKE      CLOUDY     7   5  92 SW8       29.98F WCI  -6
CHURCHILL      PTCLDY    10   5  79 NW26G38   29.75F WCI -11
$$
                ***SASKATCHEWAN***

CITY           SKY/WX    TMP DP  RH WIND       PRES   REMARKS
ESTEVAN        CLOUDY     5   0  78 SE5       30.19F WCI  -4
KINDERSLEY     PTCLDY     3  -4  72 E7        29.94F WCI  -9
LLOYDMINSTER   MOCLDY     0  -6  78 S9        29.94F WCI -16
PRINCE ALBERT  FLURRIES  -2  -8  78 SW6       30.13F WCI -14
REGINA         CLOUDY     1  -4  78 SE13      30.14F WCI -16
YORKTON        PTCLDY     0  -6  78 S6        30.18F WCI -12
N. BATTLEFORD  CLEAR     -2  -9  71 SE6       30.06F WCI -14
LA RONGE       PTCLDY     0  -4  85 S5        30.06F WCI -10
SASKATOON      PTCLDY    -4  -8  84 S2        30.11F
SWIFT CURRENT  MOCLDY    14   7  73 S16       29.94F WCI  -2
$$
NOTE: THESE ARE AUTOMATED STATIONS WITH LIMITED QUALITY CONTROL
      "FAIR" INDICATES FEW OR NO CLOUDS BELOW 12,000 FEET WITH NO
      SIGNIFICANT WEATHER AND/OR OBSTRUCTIONS TO VISIBILITY.
      SKY/WX - SKY CONDITION AND SIGNIFICANT WEATHER.
      TMP - AIR TEMPERATURE.    DP   - DEWPOINT TEMPERATURE.
      RH  - RELATIVE HUMIDITY.  PRES - PRESSURE.
      HX  - HEAT INDEX.         WCI  - WIND CHILL INDEX.
$




USA.gov is the U.S. government's official web portal to all federal, state and local government web resources and services.